Year,Month,Day,Hour,Minute,Value (Times are PST for temperature in C)
2017,05,26,00,00,13.90
2017,05,26,00,01,13.90
2017,05,26,00,02,13.90
2017,05,26,00,03,13.80
2017,05,26,00,04,13.80
2017,05,26,00,05,13.80
2017,05,26,00,06,13.80
2017,05,26,00,07,13.80
2017,05,26,00,08,13.80
2017,05,26,00,09,13.70
2017,05,26,00,10,13.70
2017,05,26,00,11,13.70
2017,05,26,00,12,13.70
2017,05,26,00,13,13.70
2017,05,26,00,14,13.70
2017,05,26,00,15,13.70
2017,05,26,00,16,13.60
2017,05,26,00,17,13.60
2017,05,26,00,18,13.60
2017,05,26,00,19,13.50
2017,05,26,00,20,13.40
2017,05,26,00,21,13.40
2017,05,26,00,22,13.40
2017,05,26,00,23,13.30
2017,05,26,00,24,13.30
2017,05,26,00,25,13.30
2017,05,26,00,26,13.30
2017,05,26,00,27,13.20
2017,05,26,00,28,13.20
2017,05,26,00,29,13.20
2017,05,26,00,30,13.20
2017,05,26,00,31,13.10
2017,05,26,00,32,13.10
2017,05,26,00,33,13.10
2017,05,26,00,34,13.00
2017,05,26,00,35,13.00
2017,05,26,00,36,13.00
2017,05,26,00,37,12.90
2017,05,26,00,38,12.90
2017,05,26,00,39,12.90
2017,05,26,00,40,12.90
2017,05,26,00,41,12.80
2017,05,26,00,42,12.80
2017,05,26,00,43,12.80
2017,05,26,00,44,12.70
2017,05,26,00,45,12.70
2017,05,26,00,46,12.70
2017,05,26,00,47,12.60
2017,05,26,00,48,12.60
2017,05,26,00,49,12.60
2017,05,26,00,50,12.50
2017,05,26,00,51,12.50
2017,05,26,00,52,12.50
2017,05,26,00,53,12.50
2017,05,26,00,54,12.40
2017,05,26,00,55,12.40
2017,05,26,00,56,12.40
2017,05,26,00,57,12.40
2017,05,26,00,58,12.40
2017,05,26,00,59,12.30
2017,05,26,01,00,12.30
2017,05,26,01,01,12.30
2017,05,26,01,02,12.30
2017,05,26,01,03,12.30
2017,05,26,01,04,12.30
2017,05,26,01,05,12.30
2017,05,26,01,06,12.30
2017,05,26,01,07,12.30
2017,05,26,01,08,12.30
2017,05,26,01,09,12.30
2017,05,26,01,10,12.30
2017,05,26,01,11,12.20
2017,05,26,01,12,12.20
2017,05,26,01,13,12.20
2017,05,26,01,14,12.20
2017,05,26,01,15,12.20
2017,05,26,01,16,12.20
2017,05,26,01,17,12.10
2017,05,26,01,18,12.10
2017,05,26,01,19,12.10
2017,05,26,01,20,12.10
2017,05,26,01,21,12.10
2017,05,26,01,22,12.10
2017,05,26,01,23,12.00
2017,05,26,01,24,12.00
2017,05,26,01,25,12.00
2017,05,26,01,26,12.00
2017,05,26,01,27,12.00
2017,05,26,01,28,12.00
2017,05,26,01,29,12.00
2017,05,26,01,30,12.00
2017,05,26,01,31,12.00
2017,05,26,01,32,12.00
2017,05,26,01,33,12.00
2017,05,26,01,34,11.90
2017,05,26,01,35,11.90
2017,05,26,01,36,11.90
2017,05,26,01,37,11.90
2017,05,26,01,38,11.90
2017,05,26,01,39,11.90
2017,05,26,01,40,11.90
2017,05,26,01,41,11.90
2017,05,26,01,42,11.90
2017,05,26,01,43,11.90
2017,05,26,01,44,11.90
2017,05,26,01,45,11.90
2017,05,26,01,46,11.90
2017,05,26,01,47,11.90
2017,05,26,01,48,11.90
2017,05,26,01,49,11.90
2017,05,26,01,50,11.90
2017,05,26,01,51,11.90
2017,05,26,01,52,11.90
2017,05,26,01,53,11.90
2017,05,26,01,54,11.90
2017,05,26,01,55,11.90
2017,05,26,01,56,11.90
2017,05,26,01,57,11.90
2017,05,26,01,58,11.90
2017,05,26,01,59,11.90
2017,05,26,02,00,11.90
2017,05,26,02,01,11.90
2017,05,26,02,02,11.90
2017,05,26,02,03,11.90
2017,05,26,02,04,11.90
2017,05,26,02,05,11.90
2017,05,26,02,06,11.90
2017,05,26,02,07,11.90
2017,05,26,02,08,11.90
2017,05,26,02,09,11.90
2017,05,26,02,10,11.90
2017,05,26,02,11,11.90
2017,05,26,02,12,11.90
2017,05,26,02,13,11.80
2017,05,26,02,14,11.80
2017,05,26,02,15,11.80
2017,05,26,02,16,11.80
2017,05,26,02,17,11.80
2017,05,26,02,18,11.80
2017,05,26,02,19,11.80
2017,05,26,02,20,11.80
2017,05,26,02,21,11.80
2017,05,26,02,22,11.70
2017,05,26,02,23,11.70
2017,05,26,02,24,11.70
2017,05,26,02,25,11.70
2017,05,26,02,26,11.60
2017,05,26,02,27,11.60
2017,05,26,02,28,11.60
2017,05,26,02,29,11.50
2017,05,26,02,30,11.40
2017,05,26,02,31,11.40
2017,05,26,02,32,11.40
2017,05,26,02,33,11.30
2017,05,26,02,34,11.30
2017,05,26,02,35,11.20
2017,05,26,02,36,11.20
2017,05,26,02,37,11.10
2017,05,26,02,38,11.00
2017,05,26,02,39,11.00
2017,05,26,02,40,10.90
2017,05,26,02,41,10.90
2017,05,26,02,42,10.90
2017,05,26,02,43,10.80
2017,05,26,02,44,10.80
2017,05,26,02,45,10.80
2017,05,26,02,46,10.80
2017,05,26,02,47,10.80
2017,05,26,02,48,10.80
2017,05,26,02,49,10.80
2017,05,26,02,50,10.80
2017,05,26,02,51,10.80
2017,05,26,02,52,10.80
2017,05,26,02,53,10.80
2017,05,26,02,54,10.70
2017,05,26,02,55,10.70
2017,05,26,02,56,10.70
2017,05,26,02,57,10.70
2017,05,26,02,58,10.70
2017,05,26,02,59,10.70
2017,05,26,03,00,10.70
2017,05,26,03,01,10.70
2017,05,26,03,02,10.70
2017,05,26,03,03,10.60
2017,05,26,03,04,10.60
2017,05,26,03,05,10.60
2017,05,26,03,06,10.60
2017,05,26,03,07,10.60
2017,05,26,03,08,10.60
2017,05,26,03,09,10.60
2017,05,26,03,10,10.60
2017,05,26,03,11,10.60
2017,05,26,03,12,10.60
2017,05,26,03,13,10.60
2017,05,26,03,14,10.60
2017,05,26,03,15,10.60
2017,05,26,03,16,10.60
2017,05,26,03,17,10.60
2017,05,26,03,18,10.60
2017,05,26,03,19,10.50
2017,05,26,03,20,10.50
2017,05,26,03,21,10.50
2017,05,26,03,22,10.50
2017,05,26,03,23,10.50
2017,05,26,03,24,10.50
2017,05,26,03,25,10.50
2017,05,26,03,26,10.50
2017,05,26,03,27,10.40
2017,05,26,03,28,10.40
2017,05,26,03,29,10.40
2017,05,26,03,30,10.40
2017,05,26,03,31,10.40
2017,05,26,03,32,10.40
2017,05,26,03,33,10.40
2017,05,26,03,34,10.40
2017,05,26,03,35,10.40
2017,05,26,03,36,10.40
2017,05,26,03,37,10.40
2017,05,26,03,38,10.40
2017,05,26,03,39,10.40
2017,05,26,03,40,10.40
2017,05,26,03,41,10.40
2017,05,26,03,42,10.40
2017,05,26,03,43,10.40
2017,05,26,03,44,10.40
2017,05,26,03,45,10.40
2017,05,26,03,46,10.40
2017,05,26,03,47,10.40
2017,05,26,03,48,10.40
2017,05,26,03,49,10.40
2017,05,26,03,50,10.40
2017,05,26,03,51,10.40
2017,05,26,03,52,10.40
2017,05,26,03,53,10.40
2017,05,26,03,54,10.40
2017,05,26,03,55,10.40
2017,05,26,03,56,10.40
2017,05,26,03,57,10.40
2017,05,26,03,58,10.40
2017,05,26,03,59,10.40
2017,05,26,04,00,10.40
2017,05,26,04,01,10.40
2017,05,26,04,02,10.40
2017,05,26,04,03,10.40
2017,05,26,04,04,10.40
2017,05,26,04,05,10.40
2017,05,26,04,06,10.40
2017,05,26,04,07,10.40
2017,05,26,04,08,10.50
2017,05,26,04,09,10.50
2017,05,26,04,10,10.50
2017,05,26,04,11,10.50
2017,05,26,04,12,10.50
2017,05,26,04,13,10.50
2017,05,26,04,14,10.50
2017,05,26,04,15,10.60
2017,05,26,04,16,10.60
2017,05,26,04,17,10.60
2017,05,26,04,18,10.60
2017,05,26,04,19,10.60
2017,05,26,04,20,10.60
2017,05,26,04,21,10.60
2017,05,26,04,22,10.70
2017,05,26,04,23,10.70
2017,05,26,04,24,10.70
2017,05,26,04,25,10.80
2017,05,26,04,26,10.80
2017,05,26,04,27,10.80
2017,05,26,04,28,10.80
2017,05,26,04,29,10.90
2017,05,26,04,30,10.90
2017,05,26,04,31,10.90
2017,05,26,04,32,10.90
2017,05,26,04,33,11.00
2017,05,26,04,34,11.00
2017,05,26,04,35,11.10
2017,05,26,04,36,11.10
2017,05,26,04,37,11.10
2017,05,26,04,38,11.10
2017,05,26,04,39,11.20
2017,05,26,04,40,11.20
2017,05,26,04,41,11.20
2017,05,26,04,42,11.30
2017,05,26,04,43,11.30
2017,05,26,04,44,11.30
2017,05,26,04,45,11.30
2017,05,26,04,46,11.30
2017,05,26,04,47,11.30
2017,05,26,04,48,11.40
2017,05,26,04,49,11.40
2017,05,26,04,50,11.40
2017,05,26,04,51,11.40
2017,05,26,04,52,11.40
2017,05,26,04,53,11.40
2017,05,26,04,54,11.40
2017,05,26,04,55,11.40
2017,05,26,04,56,11.40
2017,05,26,04,57,11.40
2017,05,26,04,58,11.40
2017,05,26,04,59,11.40
2017,05,26,05,00,11.40
2017,05,26,05,01,11.40
2017,05,26,05,02,11.40
2017,05,26,05,03,11.40
2017,05,26,05,04,11.40
2017,05,26,05,05,11.40
2017,05,26,05,06,11.40
2017,05,26,05,07,11.40
2017,05,26,05,08,11.40
2017,05,26,05,09,11.40
2017,05,26,05,10,11.30
2017,05,26,05,11,11.30
2017,05,26,05,12,11.30
2017,05,26,05,13,11.30
2017,05,26,05,14,11.30
2017,05,26,05,15,11.30
2017,05,26,05,16,11.30
2017,05,26,05,17,11.30
2017,05,26,05,18,11.20
2017,05,26,05,19,11.20
2017,05,26,05,20,11.20
2017,05,26,05,21,11.20
2017,05,26,05,22,11.20
2017,05,26,05,23,11.20
2017,05,26,05,24,11.20
2017,05,26,05,25,11.20
2017,05,26,05,26,11.20
2017,05,26,05,27,11.10
2017,05,26,05,28,11.10
2017,05,26,05,29,11.10
2017,05,26,05,30,11.10
2017,05,26,05,31,11.10
2017,05,26,05,32,11.10
2017,05,26,05,33,11.10
2017,05,26,05,34,11.10
2017,05,26,05,35,11.10
2017,05,26,05,36,11.10
2017,05,26,05,37,11.10
2017,05,26,05,38,11.10
2017,05,26,05,39,11.10
2017,05,26,05,40,11.10
2017,05,26,05,41,11.10
2017,05,26,05,42,11.10
2017,05,26,05,43,11.10
2017,05,26,05,44,11.10
2017,05,26,05,45,11.10
2017,05,26,05,46,11.10
2017,05,26,05,47,11.10
2017,05,26,05,48,11.10
2017,05,26,05,49,11.10
2017,05,26,05,50,11.10
2017,05,26,05,51,11.10
2017,05,26,05,52,11.20
2017,05,26,05,53,11.20
2017,05,26,05,54,11.20
2017,05,26,05,55,11.20
2017,05,26,05,56,11.20
2017,05,26,05,57,11.20
2017,05,26,05,58,11.20
2017,05,26,05,59,11.20
2017,05,26,06,00,11.20
2017,05,26,06,01,11.20
2017,05,26,06,02,11.20
2017,05,26,06,03,11.20
2017,05,26,06,04,11.20
2017,05,26,06,05,11.30
2017,05,26,06,06,11.30
2017,05,26,06,07,11.30
2017,05,26,06,08,11.30
2017,05,26,06,09,11.30
2017,05,26,06,10,11.30
2017,05,26,06,11,11.30
2017,05,26,06,12,11.30
2017,05,26,06,13,11.40
2017,05,26,06,14,11.40
2017,05,26,06,15,11.40
2017,05,26,06,16,11.40
2017,05,26,06,17,11.50
2017,05,26,06,18,11.50
2017,05,26,06,19,11.60
2017,05,26,06,20,11.60
2017,05,26,06,21,11.60
2017,05,26,06,22,11.70
2017,05,26,06,23,11.70
2017,05,26,06,24,11.80
2017,05,26,06,25,11.80
2017,05,26,06,26,11.80
2017,05,26,06,27,11.90
2017,05,26,06,28,11.90
2017,05,26,06,29,11.90
2017,05,26,06,30,12.00
2017,05,26,06,31,12.00
2017,05,26,06,32,12.00
2017,05,26,06,33,12.10
2017,05,26,06,34,12.10
2017,05,26,06,35,12.10
2017,05,26,06,36,12.20
2017,05,26,06,37,12.20
2017,05,26,06,38,12.20
2017,05,26,06,39,12.20
2017,05,26,06,40,12.30
2017,05,26,06,41,12.30
2017,05,26,06,42,12.30
2017,05,26,06,43,12.40
2017,05,26,06,44,12.40
2017,05,26,06,45,12.50
2017,05,26,06,46,12.50
2017,05,26,06,47,12.60
2017,05,26,06,48,12.60
2017,05,26,06,49,12.60
2017,05,26,06,50,12.70
2017,05,26,06,51,12.70
2017,05,26,06,52,12.70
2017,05,26,06,53,12.80
2017,05,26,06,54,12.80
2017,05,26,06,55,12.80
2017,05,26,06,56,12.80
2017,05,26,06,57,12.80
2017,05,26,06,58,12.90
2017,05,26,06,59,12.90
2017,05,26,07,00,12.90
2017,05,26,07,01,12.90
2017,05,26,07,02,12.90
2017,05,26,07,03,12.90
2017,05,26,07,04,12.90
2017,05,26,07,05,13.00
2017,05,26,07,06,13.00
2017,05,26,07,07,13.00
2017,05,26,07,08,13.00
2017,05,26,07,09,13.00
2017,05,26,07,10,13.10
2017,05,26,07,11,13.10
2017,05,26,07,12,13.10
2017,05,26,07,13,13.10
2017,05,26,07,14,13.20
2017,05,26,07,15,13.20
2017,05,26,07,16,13.20
2017,05,26,07,17,13.20
2017,05,26,07,18,13.30
2017,05,26,07,19,13.30
2017,05,26,07,20,13.30
2017,05,26,07,21,13.30
2017,05,26,07,22,13.40
2017,05,26,07,23,13.40
2017,05,26,07,24,13.40
2017,05,26,07,25,13.50
2017,05,26,07,26,13.50
2017,05,26,07,27,13.50
2017,05,26,07,28,13.60
2017,05,26,07,29,13.60
2017,05,26,07,30,13.60
2017,05,26,07,31,13.60
2017,05,26,07,32,13.70
2017,05,26,07,33,13.70
2017,05,26,07,34,13.70
2017,05,26,07,35,13.80
2017,05,26,07,36,13.80
2017,05,26,07,37,13.80
2017,05,26,07,38,13.90
2017,05,26,07,39,13.90
2017,05,26,07,40,13.90
2017,05,26,07,41,14.00
2017,05,26,07,42,14.10
2017,05,26,07,43,14.10
2017,05,26,07,44,14.20
2017,05,26,07,45,14.20
2017,05,26,07,46,14.30
2017,05,26,07,47,14.30
2017,05,26,07,48,14.40
2017,05,26,07,49,14.40
2017,05,26,07,50,14.50
2017,05,26,07,51,14.50
2017,05,26,07,52,14.60
2017,05,26,07,53,14.60
2017,05,26,07,54,14.70
2017,05,26,07,55,14.70
2017,05,26,07,56,14.80
2017,05,26,07,57,14.80
2017,05,26,07,58,14.90
2017,05,26,07,59,14.90
2017,05,26,08,00,14.90
2017,05,26,08,01,15.00
2017,05,26,08,02,15.00
2017,05,26,08,03,15.10
2017,05,26,08,04,15.10
2017,05,26,08,05,15.20
2017,05,26,08,06,15.20
2017,05,26,08,07,15.20
2017,05,26,08,08,15.30
2017,05,26,08,09,15.30
2017,05,26,08,10,15.30
2017,05,26,08,11,15.30
2017,05,26,08,12,15.40
2017,05,26,08,13,15.40
2017,05,26,08,14,15.50
2017,05,26,08,15,15.60
2017,05,26,08,16,15.60
2017,05,26,08,17,15.70
2017,05,26,08,18,15.70
2017,05,26,08,19,15.80
2017,05,26,08,20,15.80
2017,05,26,08,21,15.80
2017,05,26,08,22,15.90
2017,05,26,08,23,15.90
2017,05,26,08,24,15.90
2017,05,26,08,25,16.00
2017,05,26,08,26,16.10
2017,05,26,08,27,16.10
2017,05,26,08,28,16.10
2017,05,26,08,29,16.20
2017,05,26,08,30,16.20
2017,05,26,08,31,16.30
2017,05,26,08,32,16.30
2017,05,26,08,33,16.30
2017,05,26,08,34,16.40
2017,05,26,08,35,16.40
2017,05,26,08,36,16.40
2017,05,26,08,37,16.40
2017,05,26,08,38,16.40
2017,05,26,08,39,16.40
2017,05,26,08,40,16.40
2017,05,26,08,41,16.40
2017,05,26,08,42,16.30
2017,05,26,08,43,16.30
2017,05,26,08,44,16.40
2017,05,26,08,45,16.40
2017,05,26,08,46,16.40
2017,05,26,08,47,16.40
2017,05,26,08,48,16.40
2017,05,26,08,49,16.40
2017,05,26,08,50,16.40
2017,05,26,08,51,16.40
2017,05,26,08,52,16.40
2017,05,26,08,53,16.40
2017,05,26,08,54,16.40
2017,05,26,08,55,16.40
2017,05,26,08,56,16.40
2017,05,26,08,57,16.30
2017,05,26,08,58,16.30
2017,05,26,08,59,16.30
2017,05,26,09,00,16.30
2017,05,26,09,01,16.30
2017,05,26,09,02,16.20
2017,05,26,09,03,16.20
2017,05,26,09,04,16.20
2017,05,26,09,05,16.20
2017,05,26,09,06,16.20
2017,05,26,09,07,16.30
2017,05,26,09,08,16.30
2017,05,26,09,09,16.30
2017,05,26,09,10,16.30
2017,05,26,09,11,16.30
2017,05,26,09,12,16.30
2017,05,26,09,13,16.30
2017,05,26,09,14,16.30
2017,05,26,09,15,16.30
2017,05,26,09,16,16.30
2017,05,26,09,17,16.40
2017,05,26,09,18,16.40
2017,05,26,09,19,16.40
2017,05,26,09,20,16.40
2017,05,26,09,21,16.40
2017,05,26,09,22,16.30
2017,05,26,09,23,16.30
2017,05,26,09,24,16.30
2017,05,26,09,25,16.30
2017,05,26,09,26,16.30
2017,05,26,09,27,16.30
2017,05,26,09,28,16.30
2017,05,26,09,29,16.30
2017,05,26,09,30,16.40
2017,05,26,09,31,16.40
2017,05,26,09,32,16.40
2017,05,26,09,33,16.40
2017,05,26,09,34,16.40
2017,05,26,09,35,16.50
2017,05,26,09,36,16.60
2017,05,26,09,37,16.60
2017,05,26,09,38,16.70
2017,05,26,09,39,16.70
2017,05,26,09,40,16.80
2017,05,26,09,41,16.80
2017,05,26,09,42,16.90
2017,05,26,09,43,16.90
2017,05,26,09,44,16.90
2017,05,26,09,45,16.90
2017,05,26,09,46,17.00
2017,05,26,09,47,17.00
2017,05,26,09,48,17.00
2017,05,26,09,49,16.90
2017,05,26,09,50,16.90
2017,05,26,09,51,16.90
2017,05,26,09,52,16.80
2017,05,26,09,53,16.80
2017,05,26,09,54,16.80
2017,05,26,09,55,16.80
2017,05,26,09,56,16.80
2017,05,26,09,57,16.80
2017,05,26,09,58,16.80
2017,05,26,09,59,16.80
2017,05,26,10,00,16.80
2017,05,26,10,01,16.90
2017,05,26,10,02,16.90
2017,05,26,10,03,16.90
2017,05,26,10,04,17.00
2017,05,26,10,05,17.00
2017,05,26,10,06,17.10
2017,05,26,10,07,17.10
2017,05,26,10,08,17.20
2017,05,26,10,09,17.30
2017,05,26,10,10,17.30
2017,05,26,10,11,17.40
2017,05,26,10,12,17.50
2017,05,26,10,13,17.50
2017,05,26,10,14,17.60
2017,05,26,10,15,17.60
2017,05,26,10,16,17.70
2017,05,26,10,17,17.80
2017,05,26,10,18,17.80
2017,05,26,10,19,17.90
2017,05,26,10,20,17.90
2017,05,26,10,21,17.90
2017,05,26,10,22,18.00
2017,05,26,10,23,18.00
2017,05,26,10,24,18.10
2017,05,26,10,25,18.10
2017,05,26,10,26,18.10
2017,05,26,10,27,18.20
2017,05,26,10,28,18.20
2017,05,26,10,29,18.20
2017,05,26,10,30,18.20
2017,05,26,10,31,18.20
2017,05,26,10,32,18.20
2017,05,26,10,33,18.20
2017,05,26,10,34,18.20
2017,05,26,10,35,18.20
2017,05,26,10,36,18.20
2017,05,26,10,37,18.10
2017,05,26,10,38,18.10
2017,05,26,10,39,18.10
2017,05,26,10,40,18.10
2017,05,26,10,41,18.20
2017,05,26,10,42,18.20
2017,05,26,10,43,18.20
2017,05,26,10,44,18.20
2017,05,26,10,45,18.20
2017,05,26,10,46,18.30
2017,05,26,10,47,18.30
2017,05,26,10,48,18.30
2017,05,26,10,49,18.30
2017,05,26,10,50,18.30
2017,05,26,10,51,18.30
2017,05,26,10,52,18.30
2017,05,26,10,53,18.30
2017,05,26,10,54,18.30
2017,05,26,10,55,18.30
2017,05,26,10,56,18.30
2017,05,26,10,57,18.30
2017,05,26,10,58,18.30
2017,05,26,10,59,18.30
2017,05,26,11,00,18.20
2017,05,26,11,01,18.20
2017,05,26,11,02,18.20
2017,05,26,11,03,18.10
2017,05,26,11,04,18.10
2017,05,26,11,05,18.20
2017,05,26,11,06,18.20
2017,05,26,11,07,18.20
2017,05,26,11,08,18.20
2017,05,26,11,09,18.30
2017,05,26,11,10,18.30
2017,05,26,11,11,18.40
2017,05,26,11,12,18.40
2017,05,26,11,13,18.40
2017,05,26,11,14,18.40
2017,05,26,11,15,18.40
2017,05,26,11,16,18.40
2017,05,26,11,17,18.40
2017,05,26,11,18,18.50
2017,05,26,11,19,18.60
2017,05,26,11,20,18.60
2017,05,26,11,21,18.70
2017,05,26,11,22,18.70
2017,05,26,11,23,18.70
2017,05,26,11,24,18.80
2017,05,26,11,25,18.80
2017,05,26,11,26,18.80
2017,05,26,11,27,18.80
2017,05,26,11,28,18.80
2017,05,26,11,29,18.80
2017,05,26,11,30,18.80
2017,05,26,11,31,18.80
2017,05,26,11,32,18.90
2017,05,26,11,33,18.90
2017,05,26,11,34,19.00
2017,05,26,11,35,19.10
2017,05,26,11,36,19.10
2017,05,26,11,37,19.10
2017,05,26,11,38,19.10
2017,05,26,11,39,19.10
2017,05,26,11,40,19.10
2017,05,26,11,41,19.10
2017,05,26,11,42,19.10
2017,05,26,11,43,19.10
2017,05,26,11,44,19.10
2017,05,26,11,45,19.10
2017,05,26,11,46,19.10
2017,05,26,11,47,19.20
2017,05,26,11,48,19.20
2017,05,26,11,49,19.20
2017,05,26,11,50,19.20
2017,05,26,11,51,19.20
2017,05,26,11,52,19.30
2017,05,26,11,53,19.30
2017,05,26,11,54,19.30
2017,05,26,11,55,19.40
2017,05,26,11,56,19.40
2017,05,26,11,57,19.50
2017,05,26,11,58,19.50
2017,05,26,11,59,19.60
2017,05,26,12,00,19.70
2017,05,26,12,01,19.70
2017,05,26,12,02,19.80
2017,05,26,12,03,19.90
2017,05,26,12,04,20.00
2017,05,26,12,05,20.10
2017,05,26,12,06,20.20
2017,05,26,12,07,20.20
2017,05,26,12,08,20.30
2017,05,26,12,09,20.40
2017,05,26,12,10,20.50
2017,05,26,12,11,20.50
2017,05,26,12,12,20.60
2017,05,26,12,13,20.60
2017,05,26,12,14,20.60
2017,05,26,12,15,20.60
2017,05,26,12,16,20.60
2017,05,26,12,17,20.70
2017,05,26,12,18,20.70
2017,05,26,12,19,20.70
2017,05,26,12,20,20.60
2017,05,26,12,21,20.60
2017,05,26,12,22,20.70
2017,05,26,12,23,20.70
2017,05,26,12,24,20.70
2017,05,26,12,25,20.70
2017,05,26,12,26,20.70
2017,05,26,12,27,20.70
2017,05,26,12,28,20.80
2017,05,26,12,29,20.70
2017,05,26,12,30,20.70
2017,05,26,12,31,20.70
2017,05,26,12,32,20.60
2017,05,26,12,33,20.60
2017,05,26,12,34,20.60
2017,05,26,12,35,20.60
2017,05,26,12,36,20.60
2017,05,26,12,37,20.60
2017,05,26,12,38,20.60
2017,05,26,12,39,20.50
2017,05,26,12,40,20.50
2017,05,26,12,41,20.60
2017,05,26,12,42,20.60
2017,05,26,12,43,20.70
2017,05,26,12,44,20.80
2017,05,26,12,45,20.80
2017,05,26,12,46,20.90
2017,05,26,12,47,21.00
2017,05,26,12,48,21.00
2017,05,26,12,49,21.10
2017,05,26,12,50,21.10
2017,05,26,12,51,21.20
2017,05,26,12,52,21.20
2017,05,26,12,53,21.20
2017,05,26,12,54,21.30
2017,05,26,12,55,21.20
2017,05,26,12,56,21.20
2017,05,26,12,57,21.10
2017,05,26,12,58,21.10
2017,05,26,12,59,21.00
2017,05,26,13,00,20.90
2017,05,26,13,01,20.80
2017,05,26,13,02,20.70
2017,05,26,13,03,20.70
2017,05,26,13,04,20.60
2017,05,26,13,05,20.60
2017,05,26,13,06,20.60
2017,05,26,13,07,20.50
2017,05,26,13,08,20.50
2017,05,26,13,09,20.40
2017,05,26,13,10,20.40
2017,05,26,13,11,20.40
2017,05,26,13,12,20.40
2017,05,26,13,13,20.40
2017,05,26,13,14,20.40
2017,05,26,13,15,20.40
2017,05,26,13,16,20.40
2017,05,26,13,17,20.40
2017,05,26,13,18,20.50
2017,05,26,13,19,20.50
2017,05,26,13,20,20.50
2017,05,26,13,21,20.50
2017,05,26,13,22,20.50
2017,05,26,13,23,20.50
2017,05,26,13,24,20.50
2017,05,26,13,25,20.40
2017,05,26,13,26,20.40
2017,05,26,13,27,20.40
2017,05,26,13,28,20.40
2017,05,26,13,29,20.50
2017,05,26,13,30,20.50
2017,05,26,13,31,20.50
2017,05,26,13,32,20.50
2017,05,26,13,33,20.50
2017,05,26,13,34,20.50
2017,05,26,13,35,20.50
2017,05,26,13,36,20.60
2017,05,26,13,37,20.60
2017,05,26,13,38,20.70
2017,05,26,13,39,20.70
2017,05,26,13,40,20.80
2017,05,26,13,41,20.80
2017,05,26,13,42,20.80
2017,05,26,13,43,20.80
2017,05,26,13,44,20.80
2017,05,26,13,45,20.80
2017,05,26,13,46,20.80
2017,05,26,13,47,20.80
2017,05,26,13,48,20.80
2017,05,26,13,49,20.80
2017,05,26,13,50,20.80
2017,05,26,13,51,20.80
2017,05,26,13,52,20.80
2017,05,26,13,53,20.80
2017,05,26,13,54,20.80
2017,05,26,13,55,20.90
2017,05,26,13,56,20.90
2017,05,26,13,57,20.90
2017,05,26,13,58,20.90
2017,05,26,13,59,20.90
2017,05,26,14,00,20.90
2017,05,26,14,01,20.90
2017,05,26,14,02,20.90
2017,05,26,14,03,21.00
2017,05,26,14,04,21.00
2017,05,26,14,05,21.10
2017,05,26,14,06,21.10
2017,05,26,14,07,21.10
2017,05,26,14,08,21.20
2017,05,26,14,09,21.20
2017,05,26,14,10,21.30
2017,05,26,14,11,21.30
2017,05,26,14,12,21.40
2017,05,26,14,13,21.50
2017,05,26,14,14,21.60
2017,05,26,14,15,21.60
2017,05,26,14,16,21.60
2017,05,26,14,17,21.60
2017,05,26,14,18,21.70
2017,05,26,14,19,21.70
2017,05,26,14,20,21.70
2017,05,26,14,21,21.70
2017,05,26,14,22,21.80
2017,05,26,14,23,21.80
2017,05,26,14,24,21.80
2017,05,26,14,25,21.80
2017,05,26,14,26,21.80
2017,05,26,14,27,21.70
2017,05,26,14,28,21.70
2017,05,26,14,29,21.70
2017,05,26,14,30,21.70
2017,05,26,14,31,21.70
2017,05,26,14,32,21.60
2017,05,26,14,33,21.60
2017,05,26,14,34,21.60
2017,05,26,14,35,21.50
2017,05,26,14,36,21.50
2017,05,26,14,37,21.50
2017,05,26,14,38,21.60
2017,05,26,14,39,21.70
2017,05,26,14,40,21.70
2017,05,26,14,41,21.70
2017,05,26,14,42,21.80
2017,05,26,14,43,21.80
2017,05,26,14,44,21.80
2017,05,26,14,45,21.80
2017,05,26,14,46,21.80
2017,05,26,14,47,21.80
2017,05,26,14,48,21.80
2017,05,26,14,49,21.80
2017,05,26,14,50,21.80
2017,05,26,14,51,21.90
2017,05,26,14,52,21.90
2017,05,26,14,53,22.10
2017,05,26,14,54,22.10
2017,05,26,14,55,22.20
2017,05,26,14,56,22.20
2017,05,26,14,57,22.20
2017,05,26,14,58,22.30
2017,05,26,14,59,22.30
2017,05,26,15,00,22.40
2017,05,26,15,01,22.40
2017,05,26,15,02,22.50
2017,05,26,15,03,22.60
2017,05,26,15,04,22.60
2017,05,26,15,05,22.70
2017,05,26,15,06,22.70
2017,05,26,15,07,22.70
2017,05,26,15,08,22.70
2017,05,26,15,09,22.70
2017,05,26,15,10,22.80
2017,05,26,15,11,22.80
2017,05,26,15,12,22.80
2017,05,26,15,13,22.80
2017,05,26,15,14,22.90
2017,05,26,15,15,22.90
2017,05,26,15,16,22.90
2017,05,26,15,17,22.90
2017,05,26,15,18,22.80
2017,05,26,15,19,22.80
2017,05,26,15,20,22.90
2017,05,26,15,21,22.90
2017,05,26,15,22,22.90
2017,05,26,15,23,22.90
2017,05,26,15,24,22.90
2017,05,26,15,25,23.00
2017,05,26,15,26,23.00
2017,05,26,15,27,23.10
2017,05,26,15,28,23.20
2017,05,26,15,29,23.20
2017,05,26,15,30,23.30
2017,05,26,15,31,23.30
2017,05,26,15,32,23.30
2017,05,26,15,33,23.40
2017,05,26,15,34,23.40
2017,05,26,15,35,23.50
2017,05,26,15,36,23.60
2017,05,26,15,37,23.60
2017,05,26,15,38,23.60
2017,05,26,15,39,23.60
2017,05,26,15,40,23.60
2017,05,26,15,41,23.50
2017,05,26,15,42,23.40
2017,05,26,15,43,23.40
2017,05,26,15,44,23.40
2017,05,26,15,45,23.40
2017,05,26,15,46,23.40
2017,05,26,15,47,23.50
2017,05,26,15,48,23.50
2017,05,26,15,49,23.50
2017,05,26,15,50,23.50
2017,05,26,15,51,23.40
2017,05,26,15,52,23.40
2017,05,26,15,53,23.40
2017,05,26,15,54,23.40
2017,05,26,15,55,23.40
2017,05,26,15,56,23.40
2017,05,26,15,57,23.40
2017,05,26,15,58,23.40
2017,05,26,15,59,23.40
2017,05,26,16,00,23.40
2017,05,26,16,01,23.50
2017,05,26,16,02,23.60
2017,05,26,16,03,23.60
2017,05,26,16,04,23.70
2017,05,26,16,05,23.80
2017,05,26,16,06,23.80
2017,05,26,16,07,23.90
2017,05,26,16,08,24.00
2017,05,26,16,09,24.10
2017,05,26,16,10,24.10
2017,05,26,16,11,24.20
2017,05,26,16,12,24.30
2017,05,26,16,13,24.30
2017,05,26,16,14,24.30
2017,05,26,16,15,24.30
2017,05,26,16,16,24.40
2017,05,26,16,17,24.40
2017,05,26,16,18,24.40
2017,05,26,16,19,24.40
2017,05,26,16,20,24.40
2017,05,26,16,21,24.40
2017,05,26,16,22,24.40
2017,05,26,16,23,24.40
2017,05,26,16,24,24.40
2017,05,26,16,25,24.40
2017,05,26,16,26,24.40
2017,05,26,16,27,24.40
2017,05,26,16,28,24.40
2017,05,26,16,29,24.30
2017,05,26,16,30,24.30
2017,05,26,16,31,24.30
2017,05,26,16,32,24.30
2017,05,26,16,33,24.20
2017,05,26,16,34,24.20
2017,05,26,16,35,24.10
2017,05,26,16,36,24.10
2017,05,26,16,37,24.10
2017,05,26,16,38,24.00
2017,05,26,16,39,24.00
2017,05,26,16,40,23.90
2017,05,26,16,41,23.90
2017,05,26,16,42,23.90
2017,05,26,16,43,23.90
2017,05,26,16,44,24.00
2017,05,26,16,45,24.00
2017,05,26,16,46,24.00
2017,05,26,16,47,24.00
2017,05,26,16,48,23.90
2017,05,26,16,49,23.90
2017,05,26,16,50,23.90
2017,05,26,16,51,23.90
2017,05,26,16,52,23.90
2017,05,26,16,53,24.00
2017,05,26,16,54,24.00
2017,05,26,16,55,24.00
2017,05,26,16,56,24.00
2017,05,26,16,57,23.90
2017,05,26,16,58,23.90
2017,05,26,16,59,23.80
2017,05,26,17,00,23.70
2017,05,26,17,01,23.60
2017,05,26,17,02,23.50
2017,05,26,17,03,23.40
2017,05,26,17,04,23.30
2017,05,26,17,05,23.30
2017,05,26,17,06,23.20
2017,05,26,17,07,23.20
2017,05,26,17,08,23.10
2017,05,26,17,09,23.10
2017,05,26,17,10,23.10
2017,05,26,17,11,23.10
2017,05,26,17,12,23.10
2017,05,26,17,13,23.00
2017,05,26,17,14,23.00
2017,05,26,17,15,23.00
2017,05,26,17,16,23.00
2017,05,26,17,17,22.90
2017,05,26,17,18,22.90
2017,05,26,17,19,22.80